Weather Roundup
Issued by NWS

Home | Current Version | Previous Version | Graphics & Text | Print | Product List | Glossary Off
Versions: 1 2 3 4 5 6 7 8 9 10 11 12 13 14 15 16 17 18 19 20 21 22 23 24 25 26 27 28 29 30 31 32 33 34 35 36 37 38 39 40 41 42 43 44 45 46 47 48 49 50

000
NZUS93 KARX 250559
HRRWXR

CURRENT HOURLY OBSERVATIONS ACROSS
MUCH OF THE UPPER MISSISSIPPI VALLEY
NATIONAL WEATHER SERVICE LA CROSSE WI
100 AM CDT SAT OCT 25 2014


...SOUTHEAST MINNESOTA...


CITY           SKY/WX    TMP DP  RH WIND       PRES   REMARKS
ROCHESTER      CLEAR     51  49  92 W8        29.92S
ROCHESTER/MAYO FAIR      55  51  87 W3        29.91S
WINONA         PTCLDY    55  54  94 CALM      29.89S FOG
AUSTIN         CLEAR     46  46 100 SW3       29.93S FOG
ALBERT LEA     CLEAR     55  45  67 W6        29.95R
DODGE CENTER   PTCLDY    50  46  87 W10       29.94R
PRESTON          N/A     52  51  97 SW7       29.92F FOG
OWATONNA       CLEAR     52  45  76 W5        29.94R
FARIBAULT      CLEAR     54  46  76 W5        29.93S
$$

...ELSEWHERE IN MINNESOTA...


CITY           SKY/WX    TMP DP  RH WIND       PRES   REMARKS
MINNEAPOLIS    MOCLDY    58  44  60 W8        29.90R
INTNL FALLS    CLEAR     53  33  46 W20G26    29.75R
DULUTH         CLEAR     56  35  45 W13       29.79R
RED WING       PTCLDY    45  45 100 CALM      29.89R FOG
REDWOOD FALLS  MOCLDY    58  41  53 NW9       29.98R
MANKATO        CLEAR     59  39  47 NW12      29.95R
WORTHINGTON    PTCLDY    57  41  54 NW7       30.03R
FAIRMONT       CLEAR     57   1  10 NW13      29.98R
$$

...SOUTHWEST WISCONSIN...


CITY           SKY/WX    TMP DP  RH WIND       PRES   REMARKS
LA CROSSE      PTCLDY    56  54  93 S6        29.89S FOG
PRAIRIE DU CHI CLOUDY    60  57  91 W3        29.92R FOG
BOSCOBEL       CLOUDY    60  57  89 SW7       29.91S FOG
LONE ROCK      NOT AVBL
PLATTEVILLE    CLOUDY    57  57  97 W10       29.93R VSB 3/4
FORT MC COY    CLOUDY    57  55  94 SW5       29.89F FOG
VIROQUA        CLOUDY    57  57 100 W9        29.91S
WIS DELLS      CLOUDY    56  54  91 W8        29.88S FOG
$$

...ELSEWHERE IN WISCONSIN...


CITY           SKY/WX    TMP DP  RH WIND       PRES   REMARKS
MILWAUKEE      CLOUDY    55  48  77 SW8       29.88F
MADISON        PTCLDY    54  52  93 CALM      29.88F FOG
GREEN BAY      PTCLDY    52  50  93 SW5       29.82F
EAU CLAIRE     FOG       49  48  97 W6        29.85R VSB 1/4
BLACK RVR FLS  CLOUDY    56  56 100 SW7       29.87R FOG
MEDFORD        CLOUDY    54  53  97 W5        29.83F FOG
WAUSAU         CLOUDY    55  53  93 W9        29.82S
WIS RAPIDS     CLOUDY    55  54  96 W6        29.87S FOG
MARSHFIELD     CLOUDY    56  54  93 W8        29.85S FOG
RICE LAKE      FOG       46  45  95 CALM      29.86R VSB<1/4
$$

...NORTHEAST IOWA...


CITY           SKY/WX    TMP DP  RH WIND       PRES   REMARKS
DECORAH        CLOUDY    57  57 100 VRB3      29.93R FOG
MASON CITY     CLEAR     52  48  86 W12       29.97R
CHARLES CITY   FOG       48  48 100 SW3       29.95R VSB<1/4
OELWEIN        FOG       57  57 100 W7        29.95S VSB<1/4
$$

...ELSEWHERE IN IOWA...


CITY           SKY/WX    TMP DP  RH WIND       PRES   REMARKS
DES MOINES     FOG       55  53  93 CALM      29.97S VSB 1
IOWA CITY      FOG       51  51 100 CALM      29.96F VSB 1/4
FORT DODGE     CLEAR     52  45  76 W3        29.99R
$$

...NORTHERN ILLINOIS...


CITY           SKY/WX    TMP DP  RH WIND       PRES   REMARKS
CHICAGO-OHARE  MOCLDY    59  50  72 SW6       29.91F
CHICAGO-MIDWAY CLOUDY    60  51  72 SW7       29.92F
MOLINE         FOG       53  53 100 W6        29.94S VSB 1
ROCKFORD       PTCLDY    56  50  80 SW6       29.93F
PEORIA         MOCLDY    57  50  77 CALM      29.95R
$$

NOTE: "FAIR" INDICATES FEW OR NO CLOUDS BELOW 12,000 FEET WITH NO
SIGNIFICANT WEATHER AND/OR OBSTRUCTIONS TO VISIBILITY. WIND
SPEEDS ARE IN MILES-PER-HOUR.



USA.gov is the U.S. government's official web portal to all federal, state and local government web resources and services.